#timestamp,LO_Frequency,Hit 
1501790415.5,286046998.4,N
1501790435.3,286046997.8,N
1501790455.2,286047000.7,N
1501790475.0,286047002.7,N
1501790475.9,286047002.7,N
1501790495.7,286047001.0,N
1501790515.6,286047001.1,N
1501790535.4,286047000.4,N
1501790555.2,286047000.3,N
1501790575.1,286047001.0,N
1501790576.0,286047001.0,N
1501790595.8,286047000.3,N
1501790615.6,286047000.3,N
1501790635.5,286046999.9,N
1501790655.3,286047000.5,N
1501790675.1,286047000.6,N
1501790695.9,286047000.0,N
1501790715.7,286047000.8,N
1501790735.5,286046997.1,N
1501790755.3,286046994.9,N
1501790775.2,286046996.7,N
1501790795.0,286046998.6,N
1501790795.9,286046998.6,N
1501790815.7,286046998.4,N
1501790835.6,286046998.4,N
1501790855.4,286047001.1,N
1501790875.2,286047002.3,N
1501790895.1,286047002.8,N
1501790896.0,286047002.8,N
1501790915.8,286047002.1,N
1501790935.6,286047002.7,N
1501790955.5,286047000.2,N
1501790975.3,286046998.4,N
1501790995.1,286046998.6,N
1501791015.9,286047000.6,N
1501791035.7,286047000.8,N
1501791055.5,286046999.8,N
1501791075.4,286047001.5,N
1501791095.2,286047003.0,N
1501791115.0,286047001.8,N
1501791115.9,286047001.8,N
1501791135.8,286047000.4,N
1501791155.6,286047000.5,N
1501791175.4,286046999.1,N
1501791195.2,286046998.6,N
1501791215.1,286047000.6,N
1501791216.0,286047000.6,N
1501791235.8,286047000.7,N
1501791255.6,286047000.7,N
1501791275.5,286046998.2,N
1501791295.3,286046996.8,N
1501791315.1,286046997.2,N
1501791335.9,286047000.4,N
1501791355.7,286047001.5,N
1501791375.5,286047003.6,N
1501791395.4,286047004.1,N
1501791415.2,286047004.2,N
1501791435.0,286047000.0,N
1501791435.9,286047000.0,N
1501791455.8,286046998.2,N
1501791475.6,286047000.6,N
1501791495.4,286047001.9,N
1501791515.3,286047004.4,N
1501791535.1,286047002.2,N
1501791536.0,286047002.2,N
1501791555.8,286046999.7,N
1501791575.6,286047000.3,N
1501791595.5,286047000.9,N
1501791615.3,286046998.9,N
1501791635.1,286046996.7,N
1501791655.9,286047001.2,N
1501791675.7,286047000.2,N
1501791695.5,286047000.5,N
1501791715.4,286047001.5,N
1501791735.2,286047004.1,N
1501791755.0,286047004.8,N
1501791755.9,286047004.8,N
1501791775.8,286047007.1,P
1501791795.6,286047007.1,N
1501791815.4,286047005.4,N
1501791835.3,286047005.9,N
1501791855.1,286047001.7,N
1501791875.8,286047001.8,N
1501791895.7,286047003.6,N
1501791915.5,286047004.8,N
1501791935.3,286047004.8,N
1501791955.2,286047005.1,N
1501791975.9,286047005.3,N
1501791995.7,286047005.3,N
1501792015.6,286047001.9,N
1501792035.4,286047005.2,N
1501792055.2,286047005.0,N
1501792075.0,286047003.0,N
1501792075.9,286047003.0,N
1501792095.8,286047001.8,N
1501792115.6,286047002.8,N
1501792135.4,286047003.8,N
1501792155.3,286047006.4,P
1501792175.1,286047004.4,P
1501792195.8,286047002.6,N
1501792215.7,286047002.6,N
1501792235.5,286047002.3,N
1501792255.3,286047000.7,N
1501792275.2,286046998.1,N
1501792295.9,286047002.2,N
1501792315.7,286047003.4,N
1501792335.6,286047003.9,N
1501792355.4,286047000.1,N
1501792375.2,286047002.7,N
1501792395.1,286047002.8,N
1501792396.0,286047002.8,N
1501792415.8,286047001.0,N
1501792435.6,286047002.3,N
1501792455.4,286047000.6,N
1501792475.3,286047000.5,N
1501792495.1,286047000.1,N
1501792515.8,286047000.8,N
1501792535.7,286046999.0,N
1501792555.5,286046999.8,N
1501792575.3,286047004.2,N
1501792595.2,286046998.6,N
1501792615.9,286046998.1,N
1501792635.7,286047000.9,N
1501792655.6,286046998.1,N
1501792675.4,286047001.9,N
1501792695.2,286047003.1,N
1501792715.1,286047003.1,N
1501792716.0,286047003.1,N
1501792735.8,286047003.5,N
1501792755.6,286047005.8,P
1501792775.5,286047003.4,N
1501792795.3,286047001.7,N
1501792815.1,286047001.6,N
1501792835.9,286047001.9,N
1501792855.7,286046999.7,N
1501792875.5,286047000.6,N
1501792895.3,286047000.1,N
1501792915.2,286047001.6,N
1501792935.0,286047003.5,N
1501792935.9,286047003.5,N
1501792955.8,286047005.9,P
1501792975.6,286047002.0,N
1501792995.4,286047001.9,N
1501793015.2,286047000.3,N
1501793035.1,286046999.1,N
1501793036.0,286046999.1,N
1501793055.8,286046999.6,N
1501793075.6,286047002.5,N
1501793095.5,286047002.1,N
1501793115.3,286047003.9,N
1501793135.1,286047002.3,N
1501793155.9,286047002.3,N
1501793175.7,286047001.0,N
1501793195.5,286047000.3,N
1501793215.4,286047003.6,N
1501793235.2,286047007.2,P
1501793255.0,286047005.3,N
1501793255.9,286047005.3,N
1501793275.8,286047002.0,N
1501793295.6,286047003.7,N
1501793315.4,286046999.9,N
1501793335.3,286047002.2,N
1501793355.1,286047000.0,N
1501793356.0,286047000.0,N
1501793375.8,286046998.2,N
1501793395.7,286046998.5,N
1501793415.5,286046999.0,N
1501793435.3,286046999.8,N
1501793455.2,286047000.2,N
1501793475.9,286046997.1,N
1501793495.7,286046997.9,N
1501793515.6,286046997.7,N
1501793535.4,286046997.7,N
1501793555.2,286047000.7,N
1501793575.0,286047002.5,N
1501793576.0,286047002.5,N
1501793595.8,286047006.0,N
1501793615.6,286047006.6,N
1501793635.4,286047008.7,N
1501793655.3,286047003.8,N
1501793675.1,286047001.5,N
1501793695.8,286047004.1,N
1501793715.7,286047004.1,N
1501793735.5,286047001.7,N
1501793755.3,286047004.2,N
1501793775.2,286047004.0,N
1501793795.9,286047004.0,N
1501793815.7,286047004.0,N
1501793835.6,286047001.9,N
1501793855.4,286047002.2,N
1501793875.2,286047002.6,N
1501793895.1,286046999.8,N
1501793896.0,286046999.8,N
1501793915.8,286047000.1,N
1501793935.6,286047000.4,N
1501793955.5,286047003.6,N
1501793975.3,286047002.9,N
1501793995.1,286047005.8,N
